Terug naar catalogus

OPS 4682 DEB

ActiefPO
NORAD 38430·DEBRIS·🇺🇸 United States

Gelanceerd Apr 3, 1965 vanaf Vandenberg Space Force Base

Loading…

Volgende Passages (komende 24 uur)

TLE

VersSource: Space-Track

Epoch: Sep 12, 2026, 01:27 UTC

1 38430U 65027EK  26255.06107645  .00000685  00000-0  22276-2 0  9997
2 38430  90.2743  24.7201 0054060 116.7130 243.9540 13.00238776674983

Volg OPS 4682 DEB in realtime met AllMySat

Download on the App Store